sat.trackr.live / text

‹ back to catalog

STARLINK-35484

NORAD 65923 · 2025-225P

PAYLOAD ACTIVE UNKNOWN

§ Identity

Operator
Country
US
Launch date
2025-10-08
Launch site
AFWTR
Launch vehicle
Mass (kg)
RCS (m²)

Purposes: comms

External: N2YO · Heavens-Above · Gunter

§ Orbital elements

Epoch: 2026-05-25T01:28:17.138208Z

Period
94.10 min
Inclination
53.1597°
Eccentricity
0.0001206
Mean motion
15.30206587 rev/d
Perigee alt
474.4 km
Apogee alt
476.0 km
Semi-major
6,853.3 km
B*
4.3898e-4
RAAN
170.7455°
Arg perigee
80.7362°
Mean anomaly
279.3776°
Rev number
3,610

§ Raw data

STARLINK-354841 65923U 25225P   26145.06130947  .00012667  00000+0  43898-3 0  99952 65923  53.1597 170.7455 0001206  80.7362 279.3776 15.30206587 36109

JSON: /api/v1/satellites/65923 · /tle

For live sub-satellite position, see the globe view (requires WebGL).

§ Visibility from observer

Set your observer location to see the next 7 days of passes ≥ 10°. The values pass through the URL so the page stays shareable.

No JS? Fill the form by hand. The geolocation button needs JavaScript.